Погода в Бангоре

США     44°48′03″N   68°46′40″W
темп.,
°C
ветер,
м/с
пор.,
м/с
влажн.,
%
обл.,
%
осадки,
мм/ч
давл.,
гПа
погр.,
м
16 октября, сб
сб1623:00+14ююв279497 0.0 1013337
02:00+14ююв2895100 0.0 1012418
05:00+14юв3997100 0.2 1011444
08:00+15ююв41198100 2.5 1010519
11:00+16ююв41298100 3.1 1009625
14:00+17ю51392100 3.4 1007722
17:00+16ююв51495100 0.3 1007819
20:00+17ю61594100 0.3 1006917
17 октября, вс
вс1723:00+17ю71592100 0.1 10041002
02:00+17ю61595100 1.3 10021013
05:00+14сз51195100 8.0 1001610
08:00+13зсз2697100 13.0 1002374
11:00+12сз4989100 0.3 1002656
14:00+16сз565765 0.3 10011495
17:00+13сз38623 0.0 1002699
20:00+9з210815 0.0 1004260
18 октября, пн
пн1823:00+8з27815 0.0 1004137
02:00+7з23885 0.0 100461
05:00+6з11935 0.0 100416
08:00+7зсз278793 0.0 1004226
11:00+10сз477399 0.0 1005845
14:00+9зсз367688 0.1 1004743
17:00+9зсз487564 0.4 1004686
20:00+7зсз4108081 0.4 1006648
19 октября, вт
вт1923:00+6зсз4117923 0.0 1006663
02:00+4зсз4117716 0.0 1007646
05:00+5зсз41077100 0.0 1007963
08:00+5зсз4107766 0.0 1008974
11:00+7зсз5962100 0.0 10071365
14:00+7зсз5966100 0.1 10061324
17:00+7зсз4106699 0.1 10061401
20:00+6зсз497587 0.1 10071046
20 октября, ср
ср2023:00+5сз3874100 0.0 10071085
02:00+5сз387584 0.0 1008604
05:00+5зсз3881100 0.0 1010804
08:00+6зсз4976100 0.0 1011657
11:00+10сз476094 0.0 10111332
14:00+11сз4760100 0.0 10121321
17:00+10сз386780 0.0 1013825
20:00+8з287283 0.0 1014370